User: anonymous   Login
Location: Unspecified
(0.0000°N, 0.0000°E)
Time: 06:13:06
(UTC+02:00)
Language:

Cosmos 2279 Rocket - Orbit

View from above orbital plane
View from above orbital plane
View from above satellite
View from above satellite

Ground track
Ground track

The orbit data is extracted from the following two-line orbital elements,

1 23093U 94024B   17114.70030479 +.00000141 +00000-0 +12568-3 0  9991
2 23093 082.9459 154.2832 0010970 147.2626 212.9213 13.77724044623826
Epoch (UTC): 24 April 2017 16:48:26
Eccentricity: 0.0010970
inclination: 82.9459°
perigee height: 964 km
apogee height: 980 km
right ascension of ascending node: 154.2832°
argument of perigee: 147.2626°
revolutions per day: 13.77724044
mean anomaly at epoch: 212.9213°
orbit number at epoch: 62382

The dashed part of the orbit path shows where the satellite is in the earth's shadow,  

DLR